STARLINK-38148, 100199

Orbit data source: Space-Track

STARLINK-38148, 100199 is a payload satellite owned by SpaceX/Seattle (US) in SSO that was launched on Sat, 01 Aug 2026 UTC launched from the Air Force Western Test Range (AFWTR). Payload-class satellites include a variety of spacecraft equipped with specific instruments for various scientific and technological missions. These include communications satellites like Starlink; space stations such as the ISS; scientific satellites like the Hubble; Earth observation satellites from companies like Planet Labs, Umbra, and HawkEye 360; GPS; miniature CubeSats for education and research; and military/defense satellites.

Not visible in the next 10 days
Identifier
100199, 2026-175W
Orbit
SSO
Country
Flag of USUS
Related business
Manufacturer
SpaceX/Seattle
Mission
Operational spacecraft
Bus & Motor
STARLINK V2MO, Unknown motor
Mass
575 kg wet, ~530 kg dry
Launch date (UTC)
2026-08-01 (2 months ago)
Launch vehicle
Unknown
Launch site
Air Force Western Test Range (AFWTR)
Object type
Payload
Rocket body
Debris
Shape & HBR
BOX + PAN, 17.7 m
Radar Cross Section
Large (>1 m²)

Expand to show TLE details & history
Last TLE update: 6 hours ago

TLE from 6 hours ago
0 STARLINK-38148
1 A0199U 26175W   26263.95107160 -.00383904  00000-0 -48486-2 0  9999
2 A0199  97.2841 106.3549 0005655  45.0037 315.1677 15.60710519  9240
Epoch: 2026-09-20T22:49Z
TLE epoch observation values (Epoch: 2026-09-20T22:49:32.586Z)
Latitude
-0.00009°
Longitude
124.13125°
Altitude
386.04 km
Speed
7.68 km/s
True Right ascension
07h 05m 25s
True Declination
0° 00' 00"
Sunlit
Object was in daylight at epoch
Visualization orbit readout
Latitude
Unknown
Longitude
Unknown
Altitude
Unknown
Speed
Unknown
Apparent Right ascension
Unknown
Apparent Declination
Unknown
Sunlit
N/A
Visualization observer readout
Local Sidereal Time
22:06:20
Azimuth
Unknown
Elevation
Unknown
Doppler factor
Unknown
Orbital elements
Apogee altitude
386.333 km
Perigee altitude
378.687 km
Semi-major axis
6,760.647 km
Eccentricity
0.00057
Inclination
97.2841°
RAAN
106.3549°
Arg. of periapsis
45.0037°
True anomaly
315.12199°
Mean anomaly
315.1677°
Eccentric anomaly
315.14485°
Mean motion
3.90446 °/min
Orbital period
92.2 mins
BSTAR
-0.0048486
Loading maneuver chart data...
Computing Atmospheric mass density...
Loading historical data...
Loading historical data...
Loading historical data...
Loading historical data...
Loading historical data...
Loading historical data...
Loading historical data...

Documentation

Showing up to 5 results
|